Location: São Paulo
(23.5507°S, 46.6334°W)
Time: 10:58:02
(UTC-03:00)

Transit 4A - Pass Details

Date: 25 February 2026
Orbit: 864 x 977 km, 66.8° (Epoch: 11 March)

Event Time Altitude Azimuth Distance (km) Brightness Sun altitude
Rises 22:09:13 0° 177° (S) 3,499 11.3 -44.6°
Enters shadow 22:10:32 - 169° (S) 3,149 11.0 -44.9°
Reaches altitude 10° 22:13:39 10° 146° (SE) 2,534 - -45.4°
Maximum altitude 22:15:45 12° 124° (SE) 2,386 - -45.7°
Drops below altitude 10° 22:17:51 10° 103° (ESE) 2,515 - -46.1°
Sets 22:22:10 0° 72° (ENE) 3,438 - -46.8°
